Voltar ao catálogo

COSMOS 1818 COOLANT

LostLEO
NORAD 36946·DEBRIS·🇷🇺 Russia

Lançado Feb 1, 1987 de Baikonur Cosmodrome

Loading…

Próximas Passagens (próximas 24 horas)

TLE

ObsoletoSource: Space-Track

Época: Aug 31, 2022, 08:06 UTC

1 36946U 87011AA  22243.33795074  .00000238  00000-0  12039-3 0  9997
2 36946  65.0170 142.3181 0016124 254.7430 105.1874 14.34190099679589

Acompanhe COSMOS 1818 COOLANT em tempo real com AllMySat

Download on the App Store